Starlink 5298

operational
NORAD ID: 55281 Int'l Des: 2023-010 Owner: SPXS Country: US Constellation: starlink
LEOCIRCULAR

Starlink 5298について

説明を読み込み中...

リアルタイム位置

3D地球を読み込み中...

次回通過

高度履歴

Altitude vs Time

uPlot chart will show altitude changes over time

軌道要素

1 55281U 23010N 25348.88626435 -.00000026 00000-0 56230-5 0 9991
2 55281 69.9988 258.2533 0002854 270.4768 89.6064 14.98331841160072
Epoch: Dec 14, 2025 • Age: 20 hours

現在のステータス

高度 577.5 km
速度 7.57 km/s
衛星直下点 35.84°N, 79.5°E
打ち上げ日 Jan 19, 2023
運用期間 2.9 years
タイプ internet

技術仕様

分類 Payload
質量 305.00 kg
乾燥質量 290.00 kg
総質量 305.00 kg
長さ 0.20 m
直径 2.80 m
スパン 9.00 m
形状 Box + pan
製造者 SPXS
バスタイプ Starlink
フェーズステータス In Orbit
所有者/国 SPXS/US

大規模コンステレーション

Loading constellations...